Time,TemperatureF,DewpointF,PressureIn,WindDirection,WindDirectionDegrees,WindSpeedMPH,WindSpeedGustMPH,Humidity,HourlyPrecipIn,Conditions,Clouds,dailyrainin,SoftwareType,DateUTC
2013-11-27 00:01:00,40.5,40.5,29.64,NNE,32,0.0,4.0,100,0.17,,---,0.63,VWS V14.01,2013-11-27 05:01:00,
2013-11-27 00:02:00,40.5,40.5,29.64,NNE,32,0.0,0.0,100,0.16,,---,0.00,VWS V14.01,2013-11-27 05:02:00,
2013-11-27 00:03:00,40.6,40.6,29.64,NNE,32,0.0,0.0,100,0.17,,---,0.01,VWS V14.01,2013-11-27 05:03:00,
2013-11-27 00:04:00,40.6,40.6,29.64,NNE,32,0.0,0.0,100,0.17,,---,0.01,VWS V14.01,2013-11-27 05:04:00,
2013-11-27 00:05:00,40.6,40.6,29.64,NNE,32,0.0,0.0,100,0.17,,---,0.01,VWS V14.01,2013-11-27 05:05:00,
2013-11-27 00:10:00,40.8,40.8,29.64,NNE,32,0.0,0.0,100,0.17,,---,0.02,VWS V14.01,2013-11-27 05:10:00,
2013-11-27 00:15:00,41.1,41.1,29.64,East,91,0.0,6.0,100,0.17,,---,0.03,VWS V14.01,2013-11-27 05:15:00,
2013-11-27 00:20:00,41.3,41.3,29.63,East,91,0.0,0.0,100,0.17,,---,0.05,VWS V14.01,2013-11-27 05:20:00,
2013-11-27 00:25:00,41.5,41.5,29.63,East,91,0.0,0.0,100,0.18,,---,0.07,VWS V14.01,2013-11-27 05:25:00,
2013-11-27 00:30:00,41.6,41.6,29.63,East,91,0.0,0.0,100,0.18,,---,0.08,VWS V14.01,2013-11-27 05:30:00,
2013-11-27 00:35:00,42.5,42.5,29.59,East,93,0.0,0.0,100,0.20,,---,0.10,VWS V14.01,2013-11-27 05:35:00,
2013-11-27 00:40:00,43.2,43.2,29.59,East,93,0.0,3.0,100,0.20,,---,0.12,VWS V14.01,2013-11-27 05:40:00,
2013-11-27 00:45:00,43.9,43.9,29.59,East,93,1.0,1.0,100,0.18,,---,0.12,VWS V14.01,2013-11-27 05:45:00,
2013-11-27 00:50:00,45.4,45.4,29.58,East,93,0.0,2.0,100,0.18,,---,0.14,VWS V14.01,2013-11-27 05:50:00,
2013-11-27 00:55:00,46.0,46.0,29.58,East,93,0.0,0.0,100,0.18,,---,0.16,VWS V14.01,2013-11-27 05:55:00,
2013-11-27 01:00:00,45.4,45.4,29.58,East,93,0.0,0.0,100,0.18,,---,0.17,VWS V14.01,2013-11-27 06:00:00,
2013-11-27 01:05:00,44.8,44.8,29.57,East,93,0.0,0.0,100,0.20,,---,0.20,VWS V14.01,2013-11-27 06:05:00,
2013-11-27 01:10:00,44.6,44.6,29.57,East,93,0.0,0.0,100,0.20,,---,0.22,VWS V14.01,2013-11-27 06:10:00,
2013-11-27 01:15:00,44.5,44.5,29.57,East,93,0.0,0.0,100,0.22,,---,0.24,VWS V14.01,2013-11-27 06:15:00,
2013-11-27 01:20:00,44.6,44.6,29.55,East,93,0.0,0.0,100,0.22,,---,0.26,VWS V14.01,2013-11-27 06:20:00,
2013-11-27 01:25:00,44.6,44.6,29.55,East,93,0.0,0.0,100,0.21,,---,0.27,VWS V14.01,2013-11-27 06:25:00,
2013-11-27 01:31:00,44.8,44.8,29.55,East,93,0.0,0.0,100,0.20,,---,0.28,VWS V14.01,2013-11-27 06:31:00,
2013-11-27 01:36:00,44.8,44.8,29.52,East,93,0.0,0.0,100,0.21,,---,0.30,VWS V14.01,2013-11-27 06:36:00,
2013-11-27 01:41:00,44.9,44.9,29.52,East,93,0.0,0.0,100,0.22,,---,0.33,VWS V14.01,2013-11-27 06:41:00,
2013-11-27 01:46:00,45.2,45.2,29.49,East,93,0.0,0.0,100,0.23,,---,0.35,VWS V14.01,2013-11-27 06:46:00,
2013-11-27 01:51:00,46.2,46.2,29.49,East,93,3.0,3.0,100,0.24,,---,0.36,VWS V14.01,2013-11-27 06:51:00,
2013-11-27 01:56:00,47.7,47.7,29.49,East,93,0.0,1.0,100,0.24,,---,0.38,VWS V14.01,2013-11-27 06:56:00,
2013-11-27 02:01:00,48.3,48.3,29.47,East,93,0.0,0.0,100,0.23,,---,0.39,VWS V14.01,2013-11-27 07:01:00,
2013-11-27 02:06:00,48.0,48.0,29.47,East,93,0.0,0.0,100,0.22,,---,0.40,VWS V14.01,2013-11-27 07:06:00,
2013-11-27 02:11:00,48.2,48.2,29.47,East,93,0.0,0.0,100,0.21,,---,0.41,VWS V14.01,2013-11-27 07:11:00,
2013-11-27 02:16:00,48.9,48.9,29.44,East,93,0.0,0.0,100,0.20,,---,0.43,VWS V14.01,2013-11-27 07:16:00,
2013-11-27 02:21:00,49.4,49.4,29.44,East,93,0.0,0.0,100,0.20,,---,0.44,VWS V14.01,2013-11-27 07:21:00,
2013-11-27 02:26:00,50.1,50.1,29.44,East,93,0.0,2.0,100,0.20,,---,0.46,VWS V14.01,2013-11-27 07:26:00,
2013-11-27 02:31:00,52.3,52.3,29.43,East,93,0.0,0.0,100,0.20,,---,0.47,VWS V14.01,2013-11-27 07:31:00,
2013-11-27 02:36:00,52.8,52.8,29.43,East,93,0.0,0.0,100,0.20,,---,0.48,VWS V14.01,2013-11-27 07:36:00,
2013-11-27 02:41:00,52.6,52.6,29.43,East,93,0.0,0.0,100,0.18,,---,0.49,VWS V14.01,2013-11-27 07:41:00,
2013-11-27 02:46:00,53.2,53.2,29.42,East,93,0.0,0.0,100,0.17,,---,0.51,VWS V14.01,2013-11-27 07:46:00,
2013-11-27 02:51:00,53.6,53.6,29.42,East,93,0.0,0.0,100,0.17,,---,0.52,VWS V14.01,2013-11-27 07:51:00,
2013-11-27 02:56:00,53.5,53.5,29.42,East,93,0.0,0.0,100,0.17,,---,0.54,VWS V14.01,2013-11-27 07:56:00,
2013-11-27 03:01:00,54.1,54.1,29.40,East,95,0.0,4.0,100,0.16,,---,0.54,VWS V14.01,2013-11-27 08:01:00,
2013-11-27 03:06:00,57.5,57.5,29.40,West,265,4.0,7.0,100,0.17,,---,0.56,VWS V14.01,2013-11-27 08:06:00,
2013-11-27 03:11:00,58.9,58.9,29.40,WSW,240,4.0,10.0,100,0.19,,---,0.60,VWS V14.01,2013-11-27 08:11:00,
2013-11-27 03:16:00,59.3,59.3,29.38,SSW,205,3.0,5.0,100,0.21,,---,0.63,VWS V14.01,2013-11-27 08:16:00,
2013-11-27 03:21:00,59.6,59.6,29.38,SSW,212,3.0,8.0,100,0.20,,---,0.64,VWS V14.01,2013-11-27 08:21:00,
2013-11-27 03:26:00,59.8,59.8,29.38,South,179,1.0,8.0,100,0.19,,---,0.64,VWS V14.01,2013-11-27 08:26:00,
2013-11-27 03:31:00,59.6,59.6,29.37,SW,234,1.0,6.0,100,0.19,,---,0.66,VWS V14.01,2013-11-27 08:31:00,
2013-11-27 03:36:00,59.6,59.6,29.37,WSW,238,3.0,5.0,100,0.23,,---,0.70,VWS V14.01,2013-11-27 08:36:00,
2013-11-27 03:41:00,59.8,59.8,29.37,WSW,239,2.0,6.0,100,0.28,,---,0.76,VWS V14.01,2013-11-27 08:41:00,
2013-11-27 03:46:00,59.8,59.8,29.36,WSW,239,3.0,5.0,100,0.30,,---,0.79,VWS V14.01,2013-11-27 08:46:00,
2013-11-27 03:51:00,59.8,59.8,29.36,WSW,239,3.0,4.0,100,0.32,,---,0.83,VWS V14.01,2013-11-27 08:51:00,
2013-11-27 03:56:00,59.6,59.6,29.36,West,278,0.0,2.0,100,0.35,,---,0.87,VWS V14.01,2013-11-27 08:56:00,
2013-11-27 04:01:00,59.6,59.6,29.36,West,278,2.0,4.0,100,0.35,,---,0.89,VWS V14.01,2013-11-27 09:01:00,
2013-11-27 04:06:00,59.5,59.5,29.36,West,279,0.0,4.0,100,0.42,,---,0.96,VWS V14.01,2013-11-27 09:06:00,
2013-11-27 04:12:00,59.5,59.5,29.36,West,279,0.0,0.0,100,0.43,,---,0.99,VWS V14.01,2013-11-27 09:12:00,
2013-11-27 04:17:00,59.5,59.5,29.34,West,278,3.0,4.0,100,0.43,,---,1.03,VWS V14.01,2013-11-27 09:17:00,
2013-11-27 04:22:00,59.8,59.8,29.34,West,277,1.0,4.0,100,0.42,,---,1.05,VWS V14.01,2013-11-27 09:22:00,
2013-11-27 04:27:00,59.9,59.9,29.34,West,277,0.0,3.0,100,0.42,,---,1.06,VWS V14.01,2013-11-27 09:27:00,
2013-11-27 04:32:00,59.9,59.9,29.34,West,277,0.0,1.0,100,0.41,,---,1.07,VWS V14.01,2013-11-27 09:32:00,
2013-11-27 04:37:00,59.9,59.9,29.34,WSW,253,0.0,0.0,100,0.38,,---,1.08,VWS V14.01,2013-11-27 09:37:00,
2013-11-27 04:42:00,59.9,59.9,29.34,WSW,253,0.0,0.0,100,0.33,,---,1.09,VWS V14.01,2013-11-27 09:42:00,
2013-11-27 04:47:00,59.9,59.9,29.34,WSW,253,2.0,3.0,100,0.31,,---,1.10,VWS V14.01,2013-11-27 09:47:00,
2013-11-27 04:52:00,60.1,60.1,29.34,SW,224,3.0,4.0,100,0.29,,---,1.12,VWS V14.01,2013-11-27 09:52:00,
2013-11-27 04:57:00,60.2,60.2,29.34,WSW,239,5.0,5.0,100,0.27,,---,1.14,VWS V14.01,2013-11-27 09:57:00,
2013-11-27 05:02:00,60.4,60.4,29.34,SW,231,7.0,7.0,100,0.26,,---,1.16,VWS V14.01,2013-11-27 10:02:00,
2013-11-27 05:07:00,60.2,60.2,29.34,WSW,248,5.0,5.0,100,0.23,,---,1.19,VWS V14.01,2013-11-27 10:07:00,
2013-11-27 05:12:00,60.2,60.2,29.34,NW,314,4.0,6.0,100,0.22,,---,1.21,VWS V14.01,2013-11-27 10:12:00,
2013-11-27 05:17:00,60.1,60.1,29.34,WNW,302,0.0,2.0,100,0.19,,---,1.22,VWS V14.01,2013-11-27 10:17:00,
2013-11-27 05:22:00,59.9,59.9,29.34,WNW,301,0.0,0.0,100,0.18,,---,1.23,VWS V14.01,2013-11-27 10:22:00,
2013-11-27 05:27:00,59.8,59.8,29.34,WSW,239,5.0,5.0,100,0.18,,---,1.24,VWS V14.01,2013-11-27 10:27:00,
2013-11-27 05:32:00,59.2,59.2,29.33,WNW,295,5.0,6.0,100,0.19,,---,1.26,VWS V14.01,2013-11-27 10:32:00,
2013-11-27 05:37:00,58.4,58.4,29.33,NW,305,3.0,4.0,100,0.18,,---,1.26,VWS V14.01,2013-11-27 10:37:00,
2013-11-27 05:42:00,58.0,58.0,29.33,WNW,283,0.0,4.0,100,0.18,,---,1.27,VWS V14.01,2013-11-27 10:42:00,
2013-11-27 05:47:00,57.8,57.8,29.33,WNW,283,2.0,3.0,100,0.18,,---,1.28,VWS V14.01,2013-11-27 10:47:00,
2013-11-27 05:52:00,57.5,57.5,29.33,WSW,251,4.0,4.0,100,0.16,,---,1.28,VWS V14.01,2013-11-27 10:52:00,
2013-11-27 05:57:00,56.9,56.9,29.33,WNW,293,6.0,6.0,100,0.14,,---,1.28,VWS V14.01,2013-11-27 10:57:00,
2013-11-27 06:02:00,56.0,56.0,29.35,WNW,298,3.0,9.0,100,0.13,,---,1.29,VWS V14.01,2013-11-27 11:02:00,
2013-11-27 06:07:00,55.7,55.7,29.35,West,281,0.0,4.0,100,0.10,,---,1.29,VWS V14.01,2013-11-27 11:07:00,
2013-11-27 06:12:00,55.4,55.4,29.35,WNW,293,0.0,4.0,100,0.09,,---,1.30,VWS V14.01,2013-11-27 11:12:00,
2013-11-27 06:17:00,55.3,55.3,29.35,WNW,291,3.0,3.0,100,0.08,,---,1.30,VWS V14.01,2013-11-27 11:17:00,
2013-11-27 06:22:00,55.1,55.1,29.35,NW,309,4.0,11.0,100,0.08,,---,1.31,VWS V14.01,2013-11-27 11:22:00,
2013-11-27 06:27:00,54.4,54.4,29.35,West,273,4.0,12.0,100,0.07,,---,1.31,VWS V14.01,2013-11-27 11:27:00,
2013-11-27 06:32:00,53.8,53.8,29.36,West,276,9.0,9.0,100,0.06,,---,1.31,VWS V14.01,2013-11-27 11:32:00,
2013-11-27 06:37:00,53.3,53.3,29.36,WNW,301,5.0,5.0,100,0.05,,---,1.31,VWS V14.01,2013-11-27 11:37:00,
2013-11-27 06:42:00,53.1,53.1,29.36,NW,305,0.0,6.0,100,0.06,,---,1.33,VWS V14.01,2013-11-27 11:42:00,
2013-11-27 06:47:00,52.8,52.8,29.36,WNW,302,3.0,6.0,100,0.06,,---,1.33,VWS V14.01,2013-11-27 11:47:00,
2013-11-27 06:52:00,52.3,52.3,29.36,WNW,288,2.0,2.0,100,0.06,,---,1.34,VWS V14.01,2013-11-27 11:52:00,
2013-11-27 06:58:00,51.6,51.6,29.36,NW,323,2.0,9.0,100,0.07,,---,1.35,VWS V14.01,2013-11-27 11:58:00,
2013-11-27 07:03:00,50.4,50.4,29.36,West,281,0.0,6.0,100,0.06,,---,1.35,VWS V14.01,2013-11-27 12:03:00,
2013-11-27 07:08:00,49.9,49.9,29.36,WNW,286,9.0,11.0,100,0.06,,---,1.35,VWS V14.01,2013-11-27 12:08:00,
2013-11-27 07:13:00,49.4,49.4,29.36,West,270,11.0,11.0,100,0.05,,---,1.35,VWS V14.01,2013-11-27 12:13:00,
2013-11-27 07:18:00,48.8,48.8,29.38,WNW,286,7.0,11.0,100,0.05,,---,1.35,VWS V14.01,2013-11-27 12:18:00,
2013-11-27 07:23:00,48.5,48.5,29.38,West,281,4.0,9.0,100,0.04,,---,1.35,VWS V14.01,2013-11-27 12:23:00,
2013-11-27 07:28:00,48.3,48.3,29.38,North,351,4.0,4.0,100,0.04,,---,1.35,VWS V14.01,2013-11-27 12:28:00,
2013-11-27 07:33:00,48.0,48.0,29.38,WNW,292,6.0,6.0,100,0.04,,---,1.35,VWS V14.01,2013-11-27 12:33:00,
2013-11-27 07:38:00,47.9,47.9,29.38,WNW,290,1.0,2.0,100,0.04,,---,1.35,VWS V14.01,2013-11-27 12:38:00,
2013-11-27 07:43:00,47.9,47.9,29.38,WNW,289,3.0,4.0,100,0.03,,---,1.35,VWS V14.01,2013-11-27 12:43:00,
2013-11-27 07:48:00,47.6,47.6,29.35,NW,324,0.0,2.0,100,0.02,,---,1.35,VWS V14.01,2013-11-27 12:48:00,
2013-11-27 07:53:00,47.6,47.6,29.35,NW,322,0.0,2.0,100,0.01,,---,1.35,VWS V14.01,2013-11-27 12:53:00,
2013-11-27 07:58:00,47.4,47.4,29.35,NW,319,0.0,2.0,100,0.00,,---,1.35,VWS V14.01,2013-11-27 12:58:00,
2013-11-27 08:03:00,47.4,47.4,29.37,NW,319,0.0,3.0,100,0.00,,---,1.35,VWS V14.01,2013-11-27 13:03:00,
2013-11-27 08:08:00,47.4,47.4,29.37,WNW,293,1.0,5.0,100,0.00,,---,1.35,VWS V14.01,2013-11-27 13:08:00,
2013-11-27 08:13:00,47.3,47.3,29.37,WNW,289,2.0,3.0,100,0.00,,---,1.35,VWS V14.01,2013-11-27 13:13:00,
2013-11-27 08:18:00,47.1,47.1,29.41,NW,315,1.0,6.0,100,0.00,,---,1.35,VWS V14.01,2013-11-27 13:18:00,
2013-11-27 08:23:00,46.8,46.8,29.41,WNW,302,0.0,5.0,100,0.01,,---,1.36,VWS V14.01,2013-11-27 13:23:00,
2013-11-27 08:28:00,46.7,46.7,29.41,WNW,296,4.0,4.0,100,0.01,,---,1.36,VWS V14.01,2013-11-27 13:28:00,
2013-11-27 08:33:00,46.5,46.5,29.40,WNW,296,0.0,0.0,100,0.02,,---,1.37,VWS V14.01,2013-11-27 13:33:00,
2013-11-27 08:38:00,46.4,46.4,29.40,WNW,296,0.0,1.0,100,0.02,,---,1.37,VWS V14.01,2013-11-27 13:38:00,
2013-11-27 08:43:00,46.4,46.4,29.40,WNW,296,0.0,1.0,100,0.02,,---,1.37,VWS V14.01,2013-11-27 13:43:00,
2013-11-27 08:48:00,46.2,46.2,29.40,WNW,297,2.0,4.0,100,0.02,,---,1.37,VWS V14.01,2013-11-27 13:48:00,
2013-11-27 08:53:00,46.1,46.1,29.40,WNW,289,0.0,2.0,100,0.03,,---,1.38,VWS V14.01,2013-11-27 13:53:00,
2013-11-27 08:58:00,46.0,46.0,29.40,WNW,289,0.0,0.0,100,0.03,,---,1.38,VWS V14.01,2013-11-27 13:58:00,
2013-11-27 09:03:00,45.8,45.8,29.38,WNW,295,0.0,3.0,100,0.04,,---,1.39,VWS V14.01,2013-11-27 14:03:00,
2013-11-27 09:08:00,45.8,45.8,29.38,WNW,295,0.0,0.0,100,0.05,,---,1.40,VWS V14.01,2013-11-27 14:08:00,
2013-11-27 09:13:00,45.7,45.7,29.38,WNW,295,2.0,3.0,100,0.05,,---,1.40,VWS V14.01,2013-11-27 14:13:00,
2013-11-27 09:18:00,45.5,45.5,29.38,WNW,303,0.0,2.0,100,0.05,,---,1.40,VWS V14.01,2013-11-27 14:18:00,
2013-11-27 09:23:00,45.5,45.5,29.38,NW,316,1.0,3.0,100,0.06,,---,1.41,VWS V14.01,2013-11-27 14:23:00,
2013-11-27 09:28:00,45.5,45.5,29.38,NNW,339,2.0,6.0,100,0.05,,---,1.41,VWS V14.01,2013-11-27 14:28:00,
2013-11-27 09:33:00,45.2,45.2,29.40,NNW,339,0.0,4.0,100,0.04,,---,1.41,VWS V14.01,2013-11-27 14:33:00,
2013-11-27 09:38:00,44.9,44.9,29.40,NW,306,0.0,6.0,100,0.04,,---,1.41,VWS V14.01,2013-11-27 14:38:00,
2013-11-27 09:44:00,44.6,44.6,29.40,NW,309,2.0,4.0,100,0.04,,---,1.41,VWS V14.01,2013-11-27 14:44:00,
2013-11-27 09:49:00,44.5,44.5,29.40,NW,316,1.0,2.0,100,0.04,,---,1.41,VWS V14.01,2013-11-27 14:49:00,
2013-11-27 09:54:00,44.3,44.3,29.40,North,1,0.0,1.0,100,0.04,,---,1.41,VWS V14.01,2013-11-27 14:54:00,
2013-11-27 09:59:00,44.2,44.2,29.40,North,1,0.0,1.0,100,0.03,,---,1.41,VWS V14.01,2013-11-27 14:59:00,
2013-11-27 10:04:00,44.1,44.1,29.39,North,1,0.0,0.0,100,0.03,,---,1.42,VWS V14.01,2013-11-27 15:04:00,
2013-11-27 10:09:00,43.9,43.9,29.39,North,1,1.0,3.0,100,0.03,,---,1.42,VWS V14.01,2013-11-27 15:09:00,
2013-11-27 10:14:00,43.6,43.6,29.39,NW,304,4.0,4.0,100,0.02,,---,1.42,VWS V14.01,2013-11-27 15:14:00,
2013-11-27 10:19:00,43.5,43.5,29.41,NNE,13,0.0,3.0,100,0.02,,---,1.42,VWS V14.01,2013-11-27 15:19:00,
2013-11-27 10:24:00,43.3,43.3,29.41,NNE,13,0.0,3.0,100,0.01,,---,1.42,VWS V14.01,2013-11-27 15:24:00,
2013-11-27 10:29:00,43.2,43.2,29.41,NNW,345,2.0,4.0,100,0.01,,---,1.42,VWS V14.01,2013-11-27 15:29:00,
2013-11-27 10:34:00,43.1,43.1,29.38,NNW,338,0.0,3.0,100,0.01,,---,1.42,VWS V14.01,2013-11-27 15:34:00,
2013-11-27 10:39:00,42.8,42.8,29.38,NNW,340,0.0,4.0,100,0.01,,---,1.42,VWS V14.01,2013-11-27 15:39:00,
2013-11-27 10:44:00,42.6,42.6,29.38,NNW,338,0.0,2.0,100,0.01,,---,1.42,VWS V14.01,2013-11-27 15:44:00,
2013-11-27 10:49:00,42.5,42.5,29.39,NW,321,2.0,5.0,100,0.01,,---,1.42,VWS V14.01,2013-11-27 15:49:00,
2013-11-27 10:54:00,42.3,42.3,29.39,NNW,342,3.0,4.0,100,0.01,,---,1.42,VWS V14.01,2013-11-27 15:54:00,
2013-11-27 10:59:00,42.2,41.9,29.39,NNW,345,0.0,12.0,99,0.01,,---,1.42,VWS V14.01,2013-11-27 15:59:00,
2013-11-27 11:04:00,42.2,41.9,29.38,NW,312,0.0,6.0,99,0.01,,---,1.42,VWS V14.01,2013-11-27 16:04:00,
2013-11-27 11:09:00,41.9,41.4,29.38,North,359,2.0,5.0,98,0.00,,---,1.42,VWS V14.01,2013-11-27 16:09:00,
2013-11-27 11:14:00,41.6,40.5,29.38,North,355,1.0,5.0,96,0.00,,---,1.42,VWS V14.01,2013-11-27 16:14:00,
2013-11-27 11:19:00,41.6,40.3,29.38,NNW,342,2.0,2.0,95,0.00,,---,1.42,VWS V14.01,2013-11-27 16:19:00,
2013-11-27 11:24:00,41.8,40.5,29.38,NNW,328,0.0,2.0,95,0.00,,---,1.42,VWS V14.01,2013-11-27 16:24:00,
2013-11-27 11:29:00,41.6,39.7,29.38,NW,311,3.0,6.0,93,0.00,,---,1.42,VWS V14.01,2013-11-27 16:29:00,
2013-11-27 11:34:00,41.5,39.3,29.37,North,1,6.0,6.0,92,0.00,,---,1.42,VWS V14.01,2013-11-27 16:34:00,
2013-11-27 11:39:00,41.3,38.6,29.37,NNW,333,0.0,13.0,90,0.00,,---,1.42,VWS V14.01,2013-11-27 16:39:00,
2013-11-27 11:44:00,41.5,39.1,29.37,North,1,2.0,2.0,91,0.00,,---,1.42,VWS V14.01,2013-11-27 16:44:00,
2013-11-27 11:49:00,41.5,39.1,29.39,NNW,345,3.0,7.0,91,0.00,,---,1.42,VWS V14.01,2013-11-27 16:49:00,
2013-11-27 11:54:00,41.3,38.6,29.39,NNW,338,4.0,5.0,90,0.01,,---,1.43,VWS V14.01,2013-11-27 16:54:00,
2013-11-27 11:59:00,41.3,38.9,29.39,West,259,1.0,8.0,91,0.01,,---,1.43,VWS V14.01,2013-11-27 16:59:00,
2013-11-27 12:04:00,41.1,38.7,29.39,NNW,327,2.0,6.0,91,0.01,,---,1.43,VWS V14.01,2013-11-27 17:04:00,
2013-11-27 12:09:00,40.8,38.4,29.39,NNW,335,0.0,4.0,91,0.01,,---,1.43,VWS V14.01,2013-11-27 17:09:00,
2013-11-27 12:14:00,40.6,38.2,29.39,North,349,1.0,12.0,91,0.01,,---,1.43,VWS V14.01,2013-11-27 17:14:00,
2013-11-27 12:19:00,40.5,38.1,29.41,North,359,0.0,5.0,91,0.02,,---,1.44,VWS V14.01,2013-11-27 17:19:00,
2013-11-27 12:24:00,40.3,37.9,29.41,North,356,0.0,3.0,91,0.02,,---,1.44,VWS V14.01,2013-11-27 17:24:00,
2013-11-27 12:29:00,40.5,38.4,29.41,North,356,1.0,3.0,92,0.02,,---,1.44,VWS V14.01,2013-11-27 17:29:00,
2013-11-27 12:35:00,40.5,38.4,29.38,North,352,2.0,3.0,92,0.02,,---,1.44,VWS V14.01,2013-11-27 17:35:00,
2013-11-27 12:40:00,40.2,37.8,29.38,NNW,335,2.0,4.0,91,0.02,,---,1.44,VWS V14.01,2013-11-27 17:40:00,
2013-11-27 12:45:00,40.2,37.8,29.38,NW,307,0.0,5.0,91,0.02,,---,1.44,VWS V14.01,2013-11-27 17:45:00,
2013-11-27 12:50:00,40.2,37.5,29.38,NNW,330,2.0,3.0,90,0.02,,---,1.44,VWS V14.01,2013-11-27 17:50:00,
2013-11-27 12:55:00,40.1,37.4,29.38,NNW,330,2.0,3.0,90,0.01,,---,1.44,VWS V14.01,2013-11-27 17:55:00,
2013-11-27 13:00:00,40.1,37.4,29.38,NNW,337,0.0,3.0,90,0.01,,---,1.44,VWS V14.01,2013-11-27 18:00:00,
2013-11-27 13:05:00,39.9,36.9,29.39,North,350,3.0,5.0,89,0.01,,---,1.44,VWS V14.01,2013-11-27 18:05:00,
2013-11-27 13:10:00,39.9,36.6,29.39,North,356,4.0,9.0,88,0.01,,---,1.44,VWS V14.01,2013-11-27 18:10:00,
2013-11-27 13:15:00,39.9,36.6,29.39,North,356,1.0,11.0,88,0.01,,---,1.44,VWS V14.01,2013-11-27 18:15:00,
2013-11-27 13:20:00,39.8,36.5,29.38,NW,313,4.0,7.0,88,0.01,,---,1.44,VWS V14.01,2013-11-27 18:20:00,
2013-11-27 13:25:00,39.8,36.8,29.38,NW,321,1.0,3.0,89,0.00,,---,1.44,VWS V14.01,2013-11-27 18:25:00,
2013-11-27 13:30:00,39.8,36.5,29.38,NNW,340,0.0,5.0,88,0.00,,---,1.44,VWS V14.01,2013-11-27 18:30:00,
2013-11-27 13:35:00,39.6,36.3,29.39,North,0,3.0,5.0,88,0.00,,---,1.44,VWS V14.01,2013-11-27 18:35:00,
2013-11-27 13:40:00,39.6,36.1,29.39,NNW,343,0.0,3.0,87,0.01,,---,1.45,VWS V14.01,2013-11-27 18:40:00,
2013-11-27 13:45:00,39.5,36.0,29.39,NNW,347,0.0,5.0,87,0.01,,---,1.45,VWS V14.01,2013-11-27 18:45:00,
2013-11-27 13:50:00,39.5,36.5,29.38,North,350,1.0,7.0,89,0.01,,---,1.45,VWS V14.01,2013-11-27 18:50:00,
2013-11-27 13:55:00,39.3,36.0,29.38,NNW,336,0.0,7.0,88,0.01,,---,1.45,VWS V14.01,2013-11-27 18:55:00,
2013-11-27 13:56:00,39.3,36.0,29.38,NNW,336,0.0,7.0,88,0.01,,---,1.45,VWS V14.01,2013-11-27 18:56:00,
2013-11-27 14:01:00,39.3,36.0,29.38,NNW,328,3.0,5.0,88,0.01,,---,1.45,VWS V14.01,2013-11-27 19:01:00,
2013-11-27 14:06:00,39.3,35.8,29.38,NNW,348,2.0,6.0,87,0.01,,---,1.45,VWS V14.01,2013-11-27 19:06:00,
2013-11-27 14:11:00,39.2,35.7,29.38,North,355,0.0,5.0,87,0.01,,---,1.45,VWS V14.01,2013-11-27 19:11:00,
2013-11-27 14:16:00,39.2,36.0,29.36,NW,326,0.0,6.0,88,0.01,,---,1.45,VWS V14.01,2013-11-27 19:16:00,
2013-11-27 14:21:00,39.1,36.1,29.36,NW,325,2.0,7.0,89,0.01,,---,1.45,VWS V14.01,2013-11-27 19:21:00,
2013-11-27 14:26:00,38.9,36.2,29.36,NW,319,0.0,9.0,90,0.01,,---,1.45,VWS V14.01,2013-11-27 19:26:00,
2013-11-27 14:31:00,38.8,36.1,29.39,WNW,300,3.0,5.0,90,0.01,,---,1.45,VWS V14.01,2013-11-27 19:31:00,
2013-11-27 14:36:00,38.8,35.8,29.39,NW,310,2.0,7.0,89,0.01,,---,1.45,VWS V14.01,2013-11-27 19:36:00,
2013-11-27 14:41:00,38.6,35.9,29.39,NW,323,0.0,5.0,90,0.02,,---,1.46,VWS V14.01,2013-11-27 19:41:00,
2013-11-27 14:46:00,38.6,35.9,29.39,NNW,346,2.0,6.0,90,0.01,,---,1.46,VWS V14.01,2013-11-27 19:46:00,
2013-11-27 14:51:00,38.5,35.5,29.39,NNW,343,2.0,11.0,89,0.01,,---,1.46,VWS V14.01,2013-11-27 19:51:00,
2013-11-27 14:56:00,38.5,35.8,29.39,NW,314,4.0,5.0,90,0.02,,---,1.47,VWS V14.01,2013-11-27 19:56:00,
2013-11-27 15:01:00,38.3,35.6,29.40,NNW,337,2.0,4.0,90,0.02,,---,1.47,VWS V14.01,2013-11-27 20:01:00,
2013-11-27 15:06:00,38.3,35.9,29.40,WNW,289,3.0,5.0,91,0.02,,---,1.47,VWS V14.01,2013-11-27 20:06:00,
2013-11-27 15:12:00,38.2,35.8,29.40,WNW,290,0.0,3.0,91,0.02,,---,1.47,VWS V14.01,2013-11-27 20:12:00,
2013-11-27 15:17:00,38.2,36.1,29.40,WNW,302,2.0,3.0,92,0.03,,---,1.48,VWS V14.01,2013-11-27 20:17:00,
2013-11-27 15:22:00,38.0,35.9,29.40,NW,307,0.0,7.0,92,0.03,,---,1.48,VWS V14.01,2013-11-27 20:22:00,
2013-11-27 15:27:00,37.9,36.1,29.40,NNW,342,1.0,12.0,93,0.03,,---,1.48,VWS V14.01,2013-11-27 20:27:00,
2013-11-27 15:32:00,37.9,36.1,29.39,NNW,336,0.0,1.0,93,0.04,,---,1.49,VWS V14.01,2013-11-27 20:32:00,
2013-11-27 15:37:00,37.8,36.0,29.39,NNW,338,2.0,2.0,93,0.04,,---,1.49,VWS V14.01,2013-11-27 20:37:00,
2013-11-27 15:42:00,37.6,35.8,29.39,North,0,1.0,3.0,93,0.03,,---,1.49,VWS V14.01,2013-11-27 20:42:00,
2013-11-27 15:47:00,37.5,35.7,29.38,NW,318,0.0,0.0,93,0.03,,---,1.49,VWS V14.01,2013-11-27 20:47:00,
2013-11-27 15:52:00,37.3,35.7,29.38,WNW,288,0.0,0.0,94,0.04,,---,1.50,VWS V14.01,2013-11-27 20:52:00,
2013-11-27 15:57:00,37.3,35.7,29.38,WNW,288,2.0,3.0,94,0.03,,---,1.50,VWS V14.01,2013-11-27 20:57:00,
2013-11-27 16:02:00,37.2,35.9,29.36,WNW,299,2.0,3.0,95,0.04,,---,1.51,VWS V14.01,2013-11-27 21:02:00,
2013-11-27 16:07:00,36.9,35.6,29.36,North,9,4.0,5.0,95,0.04,,---,1.51,VWS V14.01,2013-11-27 21:07:00,
2013-11-27 16:12:00,36.6,35.3,29.36,NNW,344,0.0,1.0,95,0.04,,---,1.51,VWS V14.01,2013-11-27 21:12:00,
2013-11-27 16:17:00,36.5,35.5,29.38,NNW,331,7.0,10.0,96,0.03,,---,1.51,VWS V14.01,2013-11-27 21:17:00,
2013-11-27 16:22:00,36.3,35.3,29.38,NW,314,3.0,3.0,96,0.03,,---,1.51,VWS V14.01,2013-11-27 21:22:00,
2013-11-27 16:27:00,36.2,35.2,29.38,NW,314,0.0,4.0,96,0.03,,---,1.51,VWS V14.01,2013-11-27 21:27:00,
2013-11-27 16:32:00,36.2,35.2,29.41,North,355,2.0,2.0,96,0.02,,---,1.51,VWS V14.01,2013-11-27 21:32:00,
2013-11-27 16:37:00,36.0,35.0,29.41,NNW,345,4.0,9.0,96,0.02,,---,1.51,VWS V14.01,2013-11-27 21:37:00,
2013-11-27 16:42:00,35.9,35.1,29.41,North,356,5.0,5.0,97,0.02,,---,1.51,VWS V14.01,2013-11-27 21:42:00,
2013-11-27 16:47:00,35.9,35.1,29.43,NNW,330,0.0,2.0,97,0.02,,---,1.51,VWS V14.01,2013-11-27 21:47:00,
2013-11-27 16:52:00,35.8,35.0,29.43,West,274,4.0,4.0,97,0.02,,---,1.52,VWS V14.01,2013-11-27 21:52:00,
2013-11-27 16:57:00,35.8,35.0,29.43,NW,311,2.0,13.0,97,0.02,,---,1.52,VWS V14.01,2013-11-27 21:57:00,
2013-11-27 17:02:00,35.8,35.0,29.45,NW,321,0.0,4.0,97,0.01,,---,1.52,VWS V14.01,2013-11-27 22:02:00,
2013-11-27 17:07:00,35.3,34.3,29.45,WNW,296,0.0,3.0,96,0.01,,---,1.52,VWS V14.01,2013-11-27 22:07:00,
2013-11-27 17:12:00,35.2,34.4,29.45,WNW,287,5.0,8.0,97,0.02,,---,1.53,VWS V14.01,2013-11-27 22:12:00,
2013-11-27 17:17:00,35.0,34.5,29.47,NNW,330,1.0,5.0,98,0.02,,---,1.53,VWS V14.01,2013-11-27 22:17:00,
2013-11-27 17:22:00,34.9,34.4,29.47,NNW,333,1.0,1.0,98,0.02,,---,1.53,VWS V14.01,2013-11-27 22:22:00,
2013-11-27 17:27:00,34.6,34.1,29.47,NW,323,4.0,6.0,98,0.02,,---,1.53,VWS V14.01,2013-11-27 22:27:00,
2013-11-27 17:32:00,34.3,34.0,29.48,West,266,0.0,5.0,99,0.03,,---,1.54,VWS V14.01,2013-11-27 22:32:00,
2013-11-27 17:37:00,34.3,34.0,29.48,WNW,293,4.0,5.0,99,0.03,,---,1.54,VWS V14.01,2013-11-27 22:37:00,
2013-11-27 17:42:00,34.3,34.3,29.48,NW,310,0.0,1.0,100,0.04,,---,1.55,VWS V14.01,2013-11-27 22:42:00,
2013-11-27 17:48:00,34.4,34.4,29.50,NW,316,1.0,10.0,100,0.04,,---,1.55,VWS V14.01,2013-11-27 22:48:00,
2013-11-27 17:53:00,34.6,34.6,29.50,West,271,10.0,10.0,100,0.03,,---,1.55,VWS V14.01,2013-11-27 22:53:00,
2013-11-27 17:58:00,34.7,34.7,29.50,WNW,283,1.0,5.0,100,0.03,,---,1.55,VWS V14.01,2013-11-27 22:58:00,
2013-11-27 18:03:00,34.7,34.7,29.50,West,276,0.0,4.0,100,0.03,,---,1.55,VWS V14.01,2013-11-27 23:03:00,
2013-11-27 18:08:00,34.7,34.7,29.50,NW,319,5.0,9.0,100,0.03,,---,1.55,VWS V14.01,2013-11-27 23:08:00,
2013-11-27 18:13:00,34.7,34.7,29.50,West,279,6.0,6.0,100,0.02,,---,1.55,VWS V14.01,2013-11-27 23:13:00,
2013-11-27 18:18:00,34.7,34.7,29.51,NW,326,0.0,7.0,100,0.02,,---,1.55,VWS V14.01,2013-11-27 23:18:00,
2013-11-27 18:23:00,34.7,34.7,29.51,NNW,344,1.0,4.0,100,0.02,,---,1.55,VWS V14.01,2013-11-27 23:23:00,
2013-11-27 18:28:00,34.7,34.7,29.51,NW,322,0.0,4.0,100,0.02,,---,1.55,VWS V14.01,2013-11-27 23:28:00,
2013-11-27 18:33:00,34.7,34.7,29.51,NW,304,0.0,3.0,100,0.01,,---,1.55,VWS V14.01,2013-11-27 23:33:00,
2013-11-27 18:38:00,34.7,34.7,29.51,NNW,329,0.0,10.0,100,0.01,,---,1.55,VWS V14.01,2013-11-27 23:38:00,
2013-11-27 18:43:00,34.9,34.7,29.51,WNW,296,1.0,9.0,99,0.00,,---,1.55,VWS V14.01,2013-11-27 23:43:00,
2013-11-27 18:48:00,34.9,34.7,29.53,WNW,295,4.0,5.0,99,0.00,,---,1.55,VWS V14.01,2013-11-27 23:48:00,
2013-11-27 18:53:00,35.0,34.5,29.53,WNW,300,0.0,6.0,98,0.00,,---,1.55,VWS V14.01,2013-11-27 23:53:00,
2013-11-27 18:58:00,35.0,34.5,29.53,North,350,0.0,4.0,98,0.00,,---,1.55,VWS V14.01,2013-11-27 23:58:00,
2013-11-27 19:03:00,35.2,34.4,29.53,NNW,330,0.0,4.0,97,0.00,,---,1.55,VWS V14.01,2013-11-28 00:03:00,
2013-11-27 19:08:00,35.2,34.2,29.53,WSW,250,2.0,4.0,96,0.00,,---,1.55,VWS V14.01,2013-11-28 00:08:00,
2013-11-27 19:13:00,35.2,34.2,29.53,NW,313,2.0,6.0,96,0.00,,---,1.55,VWS V14.01,2013-11-28 00:13:00,
2013-11-27 19:18:00,35.3,33.8,29.53,NW,325,0.0,7.0,94,0.00,,---,1.55,VWS V14.01,2013-11-28 00:18:00,
2013-11-27 19:23:00,35.3,33.2,29.53,NW,309,1.0,8.0,92,0.00,,---,1.55,VWS V14.01,2013-11-28 00:23:00,
2013-11-27 19:28:00,35.5,33.4,29.53,WNW,300,5.0,5.0,92,0.00,,---,1.55,VWS V14.01,2013-11-28 00:28:00,
2013-11-27 19:33:00,35.5,32.9,29.54,NW,308,0.0,6.0,90,0.00,,---,1.55,VWS V14.01,2013-11-28 00:33:00,
2013-11-27 19:38:00,35.5,32.6,29.54,NNW,348,0.0,6.0,89,0.00,,---,1.55,VWS V14.01,2013-11-28 00:38:00,
2013-11-27 19:43:00,35.6,32.4,29.54,NW,311,3.0,12.0,88,0.00,,---,1.55,VWS V14.01,2013-11-28 00:43:00,
2013-11-27 19:48:00,35.6,31.5,29.55,WNW,300,12.0,12.0,85,0.00,,---,1.55,VWS V14.01,2013-11-28 00:48:00,
2013-11-27 19:53:00,35.6,30.7,29.55,NW,312,3.0,11.0,82,0.01,,---,1.56,VWS V14.01,2013-11-28 00:53:00,
2013-11-27 19:58:00,35.6,29.4,29.55,West,264,5.0,9.0,78,0.01,,---,1.56,VWS V14.01,2013-11-28 00:58:00,
2013-11-27 20:03:00,35.6,29.1,29.58,NNW,342,5.0,21.0,77,0.01,,---,1.56,VWS V14.01,2013-11-28 01:03:00,
2013-11-27 20:08:00,35.6,28.8,29.58,WSW,252,4.0,7.0,76,0.01,,---,1.56,VWS V14.01,2013-11-28 01:08:00,
2013-11-27 20:13:00,35.3,27.2,29.58,North,3,2.0,10.0,72,0.01,,---,1.56,VWS V14.01,2013-11-28 01:13:00,
2013-11-27 20:18:00,35.2,26.8,29.59,NNW,339,1.0,7.0,71,0.01,,---,1.56,VWS V14.01,2013-11-28 01:18:00,
2013-11-27 20:23:00,35.0,26.2,29.59,NNW,342,10.0,13.0,70,0.01,,---,1.56,VWS V14.01,2013-11-28 01:23:00,
2013-11-27 20:29:00,34.9,25.8,29.59,North,357,6.0,10.0,69,0.01,,---,1.56,VWS V14.01,2013-11-28 01:29:00,
2013-11-27 20:34:00,34.9,25.4,29.60,North,350,4.0,14.0,68,0.01,,---,1.56,VWS V14.01,2013-11-28 01:34:00,
2013-11-27 20:39:00,34.7,25.2,29.60,NW,310,12.0,12.0,68,0.01,,---,1.56,VWS V14.01,2013-11-28 01:39:00,
2013-11-27 20:44:00,34.7,24.5,29.60,North,0,1.0,12.0,66,0.01,,---,1.56,VWS V14.01,2013-11-28 01:44:00,
2013-11-27 20:49:00,34.7,24.5,29.60,NW,320,4.0,6.0,66,0.01,,---,1.56,VWS V14.01,2013-11-28 01:49:00,
2013-11-27 20:54:00,34.7,24.1,29.60,NW,322,3.0,12.0,65,0.01,,---,1.56,VWS V14.01,2013-11-28 01:54:00,
2013-11-27 20:59:00,34.7,24.1,29.60,NW,323,5.0,7.0,65,0.00,,---,1.56,VWS V14.01,2013-11-28 01:59:00,
2013-11-27 21:04:00,34.6,23.7,29.62,NNW,328,4.0,8.0,64,0.00,,---,1.56,VWS V14.01,2013-11-28 02:04:00,
2013-11-27 21:09:00,34.6,23.7,29.62,NW,309,3.0,7.0,64,0.00,,---,1.56,VWS V14.01,2013-11-28 02:09:00,
2013-11-27 21:14:00,34.4,23.5,29.62,North,0,1.0,10.0,64,0.00,,---,1.56,VWS V14.01,2013-11-28 02:14:00,
2013-11-27 21:19:00,34.4,22.7,29.62,NW,311,0.0,7.0,62,0.00,,---,1.56,VWS V14.01,2013-11-28 02:19:00,
2013-11-27 21:24:00,34.4,22.4,29.62,West,276,14.0,14.0,61,0.00,,---,1.56,VWS V14.01,2013-11-28 02:24:00,
2013-11-27 21:29:00,34.4,22.0,29.62,NW,324,3.0,10.0,60,0.00,,---,1.56,VWS V14.01,2013-11-28 02:29:00,
2013-11-27 21:34:00,34.4,21.2,29.64,NNW,333,4.0,11.0,58,0.00,,---,1.56,VWS V14.01,2013-11-28 02:34:00,
2013-11-27 21:39:00,34.4,20.8,29.64,WNW,298,4.0,11.0,57,0.00,,---,1.56,VWS V14.01,2013-11-28 02:39:00,
2013-11-27 21:44:00,34.4,21.6,29.64,NE,43,4.0,6.0,59,0.00,,---,1.56,VWS V14.01,2013-11-28 02:44:00,
2013-11-27 21:49:00,34.3,20.7,29.65,WNW,295,4.0,6.0,57,0.00,,---,1.56,VWS V14.01,2013-11-28 02:49:00,
2013-11-27 21:54:00,34.3,20.7,29.65,West,281,4.0,5.0,57,0.00,,---,1.56,VWS V14.01,2013-11-28 02:54:00,
2013-11-27 21:59:00,34.1,20.5,29.65,North,359,1.0,13.0,57,0.00,,---,1.56,VWS V14.01,2013-11-28 02:59:00,
2013-11-27 22:04:00,34.0,20.8,29.66,NW,316,1.0,12.0,58,0.00,,---,1.56,VWS V14.01,2013-11-28 03:04:00,
2013-11-27 22:09:00,33.8,20.2,29.66,NNW,337,2.0,11.0,57,0.00,,---,1.56,VWS V14.01,2013-11-28 03:09:00,
2013-11-27 22:14:00,33.8,20.2,29.66,NNW,327,2.0,12.0,57,0.00,,---,1.56,VWS V14.01,2013-11-28 03:14:00,
2013-11-27 22:19:00,33.7,20.1,29.67,NW,316,2.0,14.0,57,0.00,,---,1.56,VWS V14.01,2013-11-28 03:19:00,
2013-11-27 22:24:00,33.7,19.3,29.67,North,8,2.0,14.0,55,0.00,,---,1.56,VWS V14.01,2013-11-28 03:24:00,
2013-11-27 22:29:00,33.5,19.5,29.67,NW,314,1.0,14.0,56,0.00,,---,1.56,VWS V14.01,2013-11-28 03:29:00,
2013-11-27 22:34:00,33.5,19.5,29.68,NW,319,7.0,9.0,56,0.00,,---,1.56,VWS V14.01,2013-11-28 03:34:00,
2013-11-27 22:39:00,33.4,19.8,29.68,WNW,294,3.0,9.0,57,0.00,,---,1.56,VWS V14.01,2013-11-28 03:39:00,
2013-11-27 22:44:00,33.2,19.2,29.68,WSW,258,5.0,11.0,56,0.00,,---,1.56,VWS V14.01,2013-11-28 03:44:00,
2013-11-27 22:49:00,33.1,18.7,29.70,North,358,7.0,16.0,55,0.00,,---,1.56,VWS V14.01,2013-11-28 03:49:00,
2013-11-27 22:55:00,32.9,18.5,29.70,NNW,328,3.0,9.0,55,0.00,,---,1.56,VWS V14.01,2013-11-28 03:55:00,
2013-11-27 23:00:00,33.1,18.7,29.70,NNW,345,7.0,12.0,55,0.00,,---,1.56,VWS V14.01,2013-11-28 04:00:00,
2013-11-27 23:05:00,33.1,18.7,29.71,NW,320,3.0,9.0,55,0.00,,---,1.56,VWS V14.01,2013-11-28 04:05:00,
2013-11-27 23:10:00,33.1,19.5,29.71,West,275,3.0,15.0,57,0.00,,---,1.56,VWS V14.01,2013-11-28 04:10:00,
2013-11-27 23:15:00,32.8,20.5,29.71,West,266,4.0,10.0,60,0.00,,---,1.56,VWS V14.01,2013-11-28 04:15:00,
2013-11-27 23:20:00,32.7,20.4,29.71,WNW,289,4.0,15.0,60,0.00,,---,1.56,VWS V14.01,2013-11-28 04:20:00,
2013-11-27 23:25:00,32.7,20.8,29.71,West,278,4.0,13.0,61,0.00,,---,1.56,VWS V14.01,2013-11-28 04:25:00,
2013-11-27 23:30:00,32.4,21.2,29.71,NNW,335,9.0,14.0,63,0.00,,---,1.56,VWS V14.01,2013-11-28 04:30:00,
2013-11-27 23:35:00,32.2,21.4,29.73,NNW,336,3.0,10.0,64,0.00,,---,1.56,VWS V14.01,2013-11-28 04:35:00,
2013-11-27 23:40:00,32.1,21.7,29.73,NW,321,4.0,13.0,65,0.00,,---,1.56,VWS V14.01,2013-11-28 04:40:00,
2013-11-27 23:45:00,31.9,21.5,29.73,WNW,292,2.0,20.0,65,0.00,,---,1.56,VWS V14.01,2013-11-28 04:45:00,
2013-11-27 23:50:00,31.8,21.8,29.74,NW,313,0.0,9.0,66,0.00,,---,1.56,VWS V14.01,2013-11-28 04:50:00,
2013-11-27 23:55:00,31.6,21.6,29.74,West,264,5.0,13.0,66,0.00,,---,1.56,VWS V14.01,2013-11-28 04:55:00,